VTD3001 URMM-UWLL

Flight info

Callsign VTD3001
Flight time N/A
Altitude 37000
Route LARIN5M LARIN G481 NIRGA R807 UROBO P135 DAFOS T789 NEPNI NEPNI1C
Aircraft A20N/M-SDE2E3FGHIRWXY/LB1

Departure

Time 2026-04-12 22:01
Airport Mineralnye Vody Airport (URMM)

Arrival

Time N/A
Airport Ulyanovsk Baratayevka Airport (UWLL)
Time Latitude Longitude Altitude Speed Heading
2026-04-12 21:33 44.21862 43.08802 1053 ft 0 kts 212°
2026-04-12 21:50 44.21869 43.08808 1052 ft 2 kts 203°
2026-04-12 21:51 44.21882 43.08818 1052 ft 2 kts 215°
2026-04-12 21:51 44.21895 43.08829 1053 ft 2 kts 211°
2026-04-12 21:51 44.21907 43.08840 1052 ft 2 kts 212°
2026-04-12 21:51 44.21920 43.08850 1052 ft 2 kts 212°
2026-04-12 21:52 44.21934 43.08858 1053 ft 2 kts 182°
2026-04-12 21:52 44.21949 43.08855 1053 ft 2 kts 180°
2026-04-12 21:52 44.21964 43.08860 1052 ft 2 kts 206°
2026-04-12 21:52 44.21977 43.08872 1053 ft 2 kts 213°
2026-04-12 21:53 44.21985 43.08879 1053 ft 0 kts 210°
2026-04-12 21:53 44.21986 43.08880 1053 ft 0 kts 211°
2026-04-12 21:56 44.21983 43.08878 1052 ft 1 kts 211°
2026-04-12 21:56 44.21966 43.08863 1052 ft 4 kts 209°
2026-04-12 21:57 44.21927 43.08862 1052 ft 7 kts 150°
2026-04-12 21:57 44.21889 43.08929 1052 ft 10 kts 121°
2026-04-12 21:57 44.21847 43.09024 1052 ft 12 kts 123°
2026-04-12 21:57 44.21792 43.09132 1052 ft 14 kts 126°
2026-04-12 21:58 44.21736 43.09248 1052 ft 14 kts 122°
2026-04-12 21:58 44.21672 43.09362 1052 ft 15 kts 132°
2026-04-12 21:58 44.21614 43.09482 1052 ft 15 kts 122°
2026-04-12 21:58 44.21556 43.09609 1052 ft 15 kts 123°
2026-04-12 21:59 44.21508 43.09742 1052 ft 15 kts 92°
2026-04-12 21:59 44.21527 43.09889 1052 ft 15 kts 76°
2026-04-12 21:59 44.21553 43.10037 1052 ft 15 kts 76°
2026-04-12 21:59 44.21582 43.10187 1052 ft 15 kts 63°
2026-04-12 22:00 44.21662 43.10280 1052 ft 14 kts 30°
2026-04-12 22:00 44.21725 43.10331 1053 ft 9 kts 28°
2026-04-12 22:00 44.21777 43.10294 1053 ft 9 kts 304°
2026-04-12 22:00 44.21829 43.10176 1053 ft 34 kts 301°
2026-04-12 22:01 44.22095 43.09592 1053 ft 104 kts 302°
2026-04-12 22:01 44.22582 43.08516 1075 ft 155 kts 302°
2026-04-12 22:01 44.23168 43.07214 1598 ft 158 kts 302°
2026-04-12 22:01 44.23746 43.05921 2239 ft 159 kts 302°
2026-04-12 22:02 44.24338 43.04619 2874 ft 160 kts 304°
2026-04-12 22:02 44.24952 43.03295 3360 ft 170 kts 303°
2026-04-12 22:02 44.25614 43.01843 3807 ft 183 kts 304°
2026-04-12 22:02 44.26322 43.00280 4213 ft 199 kts 303°
2026-04-12 22:03 44.27079 42.98587 4679 ft 213 kts 303°
2026-04-12 22:03 44.27904 42.96744 5030 ft 236 kts 304°
2026-04-12 22:03 44.28803 42.94745 5521 ft 254 kts 303°
2026-04-12 22:03 44.29784 42.92628 6185 ft 264 kts 309°
2026-04-12 22:04 44.31199 42.91055 6884 ft 268 kts 340°
2026-04-12 22:04 44.33007 42.90665 7753 ft 266 kts
2026-04-12 22:04 44.34769 42.91284 8585 ft 267 kts 18°
2026-04-12 22:04 44.36562 42.92053 9365 ft 272 kts 18°
2026-04-12 22:05 44.38377 42.92820 10165 ft 275 kts 18°
2026-04-12 22:05 44.40203 42.93586 10765 ft 285 kts 18°
2026-04-12 22:05 44.42169 42.94408 11140 ft 302 kts 18°
2026-04-12 22:05 44.44235 42.95269 11475 ft 320 kts 18°
2026-04-12 22:06 44.46432 42.96184 11792 ft 338 kts 18°
2026-04-12 22:06 44.48711 42.97130 12237 ft 349 kts 18°
2026-04-12 22:06 44.51057 42.98104 12896 ft 354 kts 18°
2026-04-12 22:06 44.53432 42.99093 13555 ft 358 kts 18°
2026-04-12 22:07 44.55800 43.00077 14186 ft 363 kts 18°
2026-04-12 22:07 44.58246 43.01158 14778 ft 368 kts 21°
2026-04-12 22:07 44.60612 43.02503 15358 ft 372 kts 27°
2026-04-12 22:07 44.62923 43.04165 15923 ft 376 kts 31°
2026-04-12 22:08 44.65203 43.05993 16448 ft 382 kts 32°
2026-04-12 22:08 44.67492 43.07863 16970 ft 387 kts 32°
2026-04-12 22:08 44.69823 43.09770 17498 ft 392 kts 33°
2026-04-12 22:08 44.72216 43.11727 18033 ft 397 kts 33°
2026-04-12 22:09 44.74598 43.13670 18520 ft 402 kts 33°
2026-04-12 22:09 44.77016 43.15644 19047 ft 406 kts 34°
2026-04-12 22:09 44.79483 43.17661 19561 ft 410 kts 33°
2026-04-12 22:09 44.81971 43.19698 20040 ft 416 kts 33°
2026-04-12 22:10 44.84482 43.21753 20477 ft 421 kts 33°
2026-04-12 22:10 44.87024 43.23835 20954 ft 426 kts 33°
2026-04-12 22:10 44.89588 43.25938 21431 ft 430 kts 33°
2026-04-12 22:10 44.92173 43.28057 21884 ft 434 kts 33°
2026-04-12 22:11 44.94787 43.30206 22339 ft 438 kts 34°
2026-04-12 22:11 44.97422 43.32374 22786 ft 442 kts 33°
2026-04-12 22:11 45.00082 43.34560 23209 ft 446 kts 33°
2026-04-12 22:11 45.02774 43.36779 23647 ft 450 kts 33°
2026-04-12 22:12 45.05474 43.38987 24167 ft 451 kts 31°
2026-04-12 22:12 45.08315 43.40882 24604 ft 457 kts 24°
2026-04-12 22:12 45.11361 43.42294 25006 ft 464 kts 16°
2026-04-12 22:12 45.14522 43.43266 25381 ft 468 kts 13°
2026-04-12 22:13 45.17724 43.44115 25731 ft 472 kts 12°
2026-04-12 22:13 45.20958 43.44953 26093 ft 475 kts 12°
2026-04-12 22:13 45.24206 43.45809 26449 ft 478 kts 12°
2026-04-12 22:13 45.27484 43.46691 26795 ft 481 kts 13°
2026-04-12 22:14 45.30762 43.47587 27103 ft 484 kts 13°
2026-04-12 22:14 45.34055 43.48497 27425 ft 486 kts 13°
2026-04-12 22:14 45.37384 43.49423 27738 ft 489 kts 13°
2026-04-12 22:14 45.40733 43.50353 28038 ft 492 kts 13°
2026-04-12 22:15 45.44108 43.51292 28322 ft 495 kts 13°
2026-04-12 22:15 45.47497 43.52235 28603 ft 498 kts 13°
2026-04-12 22:15 45.50869 43.53170 28899 ft 499 kts 13°
2026-04-12 22:15 45.54283 43.54115 29305 ft 498 kts 13°
2026-04-12 22:16 45.57646 43.55048 29744 ft 497 kts 13°
2026-04-12 22:16 45.61023 43.55990 30170 ft 496 kts 13°
2026-04-12 22:16 45.64388 43.56934 30584 ft 495 kts 13°
2026-04-12 22:16 45.67759 43.57881 31000 ft 494 kts 13°
2026-04-12 22:17 45.71154 43.58837 31412 ft 493 kts 13°
2026-04-12 22:17 45.74516 43.59788 31787 ft 492 kts 13°
2026-04-12 22:17 45.77822 43.60723 32149 ft 491 kts 13°
2026-04-12 22:17 45.81187 43.61677 32501 ft 490 kts 13°
2026-04-12 22:18 45.84509 43.62620 32831 ft 489 kts 12°
2026-04-12 22:18 45.87853 43.63569 33163 ft 489 kts 12°
2026-04-12 22:18 45.91144 43.64505 33473 ft 488 kts 12°
2026-04-12 22:18 45.94476 43.65455 33732 ft 487 kts 13°
2026-04-12 22:19 45.97809 43.66417 33978 ft 487 kts 12°
2026-04-12 22:19 46.01120 43.67380 34213 ft 486 kts 13°
2026-04-12 22:19 46.04379 43.68425 34425 ft 486 kts 14°
2026-04-12 22:19 46.07669 43.69536 34638 ft 486 kts 14°
2026-04-12 22:20 46.10955 43.70657 34858 ft 486 kts 14°
2026-04-12 22:20 46.14254 43.71771 35048 ft 485 kts 14°
2026-04-12 22:20 46.17500 43.72860 35212 ft 485 kts 14°
2026-04-12 22:20 46.20798 43.73964 35362 ft 485 kts 14°
2026-04-12 22:21 46.24066 43.75061 35479 ft 486 kts 14°
2026-04-12 22:21 46.27354 43.76163 35591 ft 487 kts 13°
2026-04-12 22:21 46.30660 43.77277 35707 ft 487 kts 13°
2026-04-12 22:21 46.33934 43.78379 35824 ft 488 kts 13°
2026-04-12 22:22 46.37244 43.79495 35927 ft 488 kts 13°
2026-04-12 22:22 46.40520 43.80601 36025 ft 489 kts 13°
2026-04-12 22:22 46.43824 43.81720 36131 ft 489 kts 13°
2026-04-12 22:22 46.47146 43.82845 36221 ft 490 kts 14°
2026-04-12 22:23 46.53748 43.85085 36414 ft 491 kts 13°
2026-04-12 22:23 46.60384 43.87336 36584 ft 491 kts 13°
2026-04-12 22:24 46.67040 43.89604 36741 ft 492 kts 13°
2026-04-12 22:24 46.73707 43.91885 36884 ft 493 kts 13°
2026-04-12 22:25 46.80343 43.94163 37023 ft 494 kts 13°
2026-04-12 22:25 46.87015 43.96455 37093 ft 495 kts 13°
2026-04-12 22:26 46.93714 43.98768 37102 ft 495 kts 14°
2026-04-12 22:26 47.00431 44.01092 37105 ft 495 kts 13°
2026-04-12 22:27 47.07087 44.03409 37091 ft 495 kts 14°
2026-04-12 22:27 47.13807 44.05756 37081 ft 496 kts 13°
2026-04-12 22:28 47.20509 44.08098 37089 ft 496 kts 13°
2026-04-12 22:28 47.27166 44.10437 37097 ft 495 kts 13°
2026-04-12 22:29 47.33805 44.12781 37097 ft 486 kts 13°
2026-04-12 22:29 47.40303 44.15083 37098 ft 475 kts 13°
2026-04-12 22:30 47.46681 44.17349 37101 ft 473 kts 14°
2026-04-12 22:30 47.53094 44.19632 37099 ft 473 kts 13°
2026-04-12 22:31 47.59434 44.21895 37099 ft 473 kts 13°
2026-04-12 22:31 47.65810 44.24175 37100 ft 473 kts 14°
2026-04-12 22:32 47.72252 44.26486 37101 ft 478 kts 14°
2026-04-12 22:32 47.78736 44.28822 37101 ft 485 kts 13°
2026-04-12 22:33 47.85286 44.31189 37101 ft 491 kts 13°
2026-04-12 22:33 47.91975 44.33617 37101 ft 496 kts 15°
2026-04-12 22:34 47.98584 44.36585 37103 ft 497 kts 18°
2026-04-12 22:34 48.05138 44.39767 37100 ft 496 kts 18°
2026-04-12 22:35 48.11634 44.42924 37100 ft 495 kts 18°
2026-04-12 22:35 48.18183 44.46088 37099 ft 495 kts 18°
2026-04-12 22:36 48.24716 44.49255 37098 ft 495 kts 18°
2026-04-12 22:36 48.31268 44.52447 37099 ft 495 kts 18°
2026-04-12 22:37 48.37782 44.55632 37098 ft 496 kts 18°
2026-04-12 22:37 48.44335 44.58851 37099 ft 496 kts 18°
2026-04-12 22:38 48.50870 44.62065 37101 ft 496 kts 18°
2026-04-12 22:38 48.57410 44.65278 37103 ft 495 kts 19°
2026-04-12 22:39 48.63940 44.68529 37105 ft 495 kts 19°
2026-04-12 22:40 48.73729 44.73400 37105 ft 496 kts 19°
2026-04-12 22:40 48.80232 44.76651 37106 ft 495 kts 19°
2026-04-12 22:41 48.86812 44.79727 37107 ft 496 kts 16°
2026-04-12 22:41 48.93439 44.82497 37117 ft 495 kts 15°
2026-04-12 22:42 49.00017 44.85237 37120 ft 494 kts 16°
2026-04-12 22:42 49.06646 44.88027 37111 ft 494 kts 16°
2026-04-12 22:43 49.13279 44.90834 37102 ft 494 kts 16°
2026-04-12 22:43 49.19875 44.93618 37104 ft 494 kts 16°
2026-04-12 22:44 49.26534 44.96447 37104 ft 494 kts 16°
2026-04-12 22:44 49.33132 44.99263 37105 ft 495 kts 16°
2026-04-12 22:45 49.39713 45.02082 37105 ft 495 kts 16°
2026-04-12 22:45 49.46323 45.04924 37100 ft 494 kts 16°
2026-04-12 22:46 49.52919 45.07768 37101 ft 494 kts 16°
2026-04-12 22:46 49.59530 45.10627 37097 ft 495 kts 17°
2026-04-12 22:47 49.66122 45.13489 37109 ft 494 kts 16°
2026-04-12 22:47 49.72743 45.16362 37108 ft 497 kts 17°
2026-04-12 22:48 49.79413 45.19278 37100 ft 499 kts 17°
2026-04-12 22:48 49.86044 45.22192 37099 ft 498 kts 17°
2026-04-12 22:49 49.92710 45.25135 37091 ft 499 kts 17°
2026-04-12 22:49 49.99348 45.28070 37103 ft 498 kts 17°
2026-04-12 22:50 50.06099 45.30656 37095 ft 500 kts 13°
2026-04-12 22:50 50.12847 45.32912 37097 ft 499 kts 12°
2026-04-12 22:51 50.19614 45.35176 37102 ft 500 kts 13°
2026-04-12 22:51 50.26411 45.37485 37107 ft 500 kts 13°
2026-04-12 22:52 50.33168 45.39796 37114 ft 500 kts 13°
2026-04-12 22:52 50.39950 45.42130 37100 ft 500 kts 13°
2026-04-12 22:53 50.46730 45.44468 37101 ft 500 kts 13°
2026-04-12 22:53 50.53525 45.46817 37111 ft 501 kts 13°
2026-04-12 22:54 50.60296 45.49169 37105 ft 501 kts 13°
2026-04-12 22:54 50.67089 45.51537 37107 ft 502 kts 13°
2026-04-12 22:55 50.73867 45.53912 37113 ft 501 kts 13°
2026-04-12 22:55 50.80640 45.56287 37106 ft 502 kts 13°
2026-04-12 22:56 50.87448 45.58725 37102 ft 502 kts 13°
2026-04-12 22:56 50.94235 45.61174 37106 ft 502 kts 13°
2026-04-12 22:57 51.00969 45.63810 37095 ft 501 kts 17°
2026-04-12 22:57 51.07509 45.67592 37092 ft 500 kts 26°
2026-04-12 22:58 51.13766 45.72242 37100 ft 499 kts 28°
2026-04-12 22:58 51.20023 45.76998 37102 ft 500 kts 28°
2026-04-12 22:59 51.26274 45.81731 37099 ft 501 kts 27°
2026-04-12 22:59 51.32577 45.86499 37107 ft 501 kts 27°
2026-04-12 23:00 51.38824 45.91235 37100 ft 501 kts 27°
2026-04-12 23:00 51.45080 45.95997 37103 ft 501 kts 27°
2026-04-12 23:01 51.51362 46.00795 37105 ft 501 kts 27°
2026-04-12 23:01 51.57602 46.05595 37116 ft 501 kts 28°
2026-04-12 23:02 51.63786 46.10661 37103 ft 500 kts 29°
2026-04-12 23:02 51.69991 46.15821 37107 ft 501 kts 29°
2026-04-12 23:03 51.76138 46.20927 37107 ft 501 kts 29°
2026-04-12 23:03 51.82307 46.26043 37094 ft 502 kts 28°
2026-04-12 23:04 51.88514 46.31193 37108 ft 501 kts 29°
2026-04-12 23:04 51.94691 46.36352 37086 ft 501 kts 29°
2026-04-12 23:05 52.00845 46.41509 37076 ft 501 kts 29°
2026-04-12 23:05 52.03914 46.44081 36878 ft 500 kts 29°
2026-04-12 23:05 52.06986 46.46660 36690 ft 496 kts 29°
2026-04-12 23:05 52.10056 46.49247 36509 ft 495 kts 29°
2026-04-12 23:06 52.13091 46.51801 36315 ft 494 kts 29°
2026-04-12 23:06 52.16127 46.54353 36130 ft 494 kts 29°
2026-04-12 23:06 52.19162 46.56913 35935 ft 495 kts 28°
2026-04-12 23:06 52.22212 46.59486 35608 ft 497 kts 28°
2026-04-12 23:07 52.25303 46.62100 35100 ft 500 kts 28°
2026-04-12 23:07 52.28366 46.64702 34477 ft 504 kts 28°
2026-04-12 23:07 52.31486 46.67365 33748 ft 510 kts 30°
2026-04-12 23:07 52.34605 46.70045 32892 ft 514 kts 29°
2026-04-12 23:08 52.37758 46.72752 32124 ft 514 kts 29°
2026-04-12 23:08 52.40933 46.75476 31455 ft 511 kts 28°
2026-04-12 23:08 52.44054 46.78154 30670 ft 509 kts 29°
2026-04-12 23:08 52.47140 46.80804 29920 ft 506 kts 29°
2026-04-12 23:09 52.50257 46.83483 29170 ft 502 kts 29°
2026-04-12 23:09 52.53314 46.86108 28481 ft 498 kts 29°
2026-04-12 23:09 52.59356 46.91312 27511 ft 487 kts 29°
2026-04-12 23:10 52.62336 46.93887 27007 ft 483 kts 29°
2026-04-12 23:10 52.65260 46.96421 26524 ft 479 kts 29°
2026-04-12 23:10 52.68181 46.98957 26004 ft 475 kts 30°
2026-04-12 23:10 52.71080 47.01479 25552 ft 471 kts 29°
2026-04-12 23:11 52.73961 47.03989 25053 ft 467 kts 30°
2026-04-12 23:11 52.76830 47.06495 24584 ft 463 kts 30°
2026-04-12 23:11 52.79628 47.08940 24078 ft 459 kts 30°
2026-04-12 23:11 52.82444 47.11402 23583 ft 455 kts 30°
2026-04-12 23:12 52.85220 47.13827 23086 ft 451 kts 30°
2026-04-12 23:12 52.87955 47.16220 22623 ft 446 kts 30°
2026-04-12 23:12 52.90694 47.18621 22194 ft 442 kts 30°
2026-04-12 23:12 52.93384 47.20987 21716 ft 439 kts 30°
2026-04-12 23:13 52.96064 47.23348 21210 ft 436 kts 30°
2026-04-12 23:13 52.98721 47.25692 20782 ft 431 kts 30°
2026-04-12 23:13 53.01329 47.27998 20291 ft 428 kts 30°
2026-04-12 23:13 53.03945 47.30314 19789 ft 425 kts 30°
2026-04-12 23:14 53.06526 47.32603 19333 ft 421 kts 30°
2026-04-12 23:14 53.09094 47.34883 18913 ft 417 kts 30°
2026-04-12 23:14 53.11607 47.37117 18439 ft 414 kts 30°
2026-04-12 23:14 53.14130 47.39352 17954 ft 411 kts 30°
2026-04-12 23:15 53.16664 47.41602 17489 ft 408 kts 30°
2026-04-12 23:15 53.19146 47.43807 17013 ft 405 kts 30°
2026-04-12 23:15 53.21606 47.45992 16560 ft 401 kts 30°
2026-04-12 23:15 53.24046 47.48168 16111 ft 398 kts 30°
2026-04-12 23:16 53.26458 47.50323 15664 ft 395 kts 30°
2026-04-12 23:16 53.28854 47.52471 15203 ft 392 kts 30°
2026-04-12 23:16 53.31259 47.54631 14765 ft 388 kts 30°
2026-04-12 23:16 53.33589 47.56727 14328 ft 385 kts 30°
2026-04-12 23:17 53.35936 47.58843 13908 ft 381 kts 29°
2026-04-12 23:17 53.38264 47.60944 13463 ft 378 kts 29°
2026-04-12 23:17 53.40564 47.63023 13047 ft 374 kts 29°
2026-04-12 23:17 53.42813 47.65055 12621 ft 371 kts 30°
2026-04-12 23:18 53.45086 47.67116 12186 ft 368 kts 30°
2026-04-12 23:18 53.47339 47.69109 11746 ft 365 kts 27°
2026-04-12 23:18 53.49630 47.70821 11322 ft 362 kts 23°
2026-04-12 23:18 53.51948 47.72372 10897 ft 359 kts 22°
2026-04-12 23:19 53.54254 47.73887 10492 ft 355 kts 22°
2026-04-12 23:19 53.56514 47.75368 10342 ft 341 kts 22°
2026-04-12 23:19 53.58667 47.76785 10271 ft 326 kts 23°
2026-04-12 23:19 53.60734 47.78150 10192 ft 312 kts 23°
2026-04-12 23:20 53.62690 47.79448 10128 ft 298 kts 23°
2026-04-12 23:20 53.64605 47.80723 9887 ft 293 kts 23°
2026-04-12 23:20 53.66483 47.81976 9537 ft 291 kts 23°
2026-04-12 23:20 53.68343 47.83219 9195 ft 289 kts 23°
2026-04-12 23:21 53.70219 47.84468 8869 ft 287 kts 23°
2026-04-12 23:21 53.72053 47.85686 8563 ft 284 kts 23°
2026-04-12 23:21 53.73872 47.86894 8267 ft 281 kts 23°
2026-04-12 23:21 53.75686 47.88102 7978 ft 277 kts 23°
2026-04-12 23:22 53.77455 47.89284 7688 ft 274 kts 23°
2026-04-12 23:22 53.79205 47.90453 7404 ft 270 kts 23°
2026-04-12 23:22 53.80943 47.91616 7121 ft 267 kts 23°
2026-04-12 23:22 53.82671 47.92773 6843 ft 264 kts 23°
2026-04-12 23:23 53.84347 47.93893 6577 ft 261 kts 24°
2026-04-12 23:23 53.86035 47.95023 6296 ft 258 kts 23°
2026-04-12 23:23 53.87696 47.96141 6030 ft 255 kts 23°
2026-04-12 23:23 53.89326 47.97244 5766 ft 252 kts 23°
2026-04-12 23:24 53.90937 47.98337 5505 ft 250 kts 24°
2026-04-12 23:24 53.92522 47.99410 5410 ft 240 kts 25°
2026-04-12 23:24 53.94033 48.00436 5379 ft 227 kts 24°
2026-04-12 23:24 53.95448 48.01398 5340 ft 213 kts 25°
2026-04-12 23:25 53.96776 48.02303 5400 ft 200 kts 25°
2026-04-12 23:25 53.98027 48.03153 5252 ft 188 kts 25°
2026-04-12 23:25 53.99188 48.03944 5138 ft 173 kts 25°
2026-04-12 23:25 54.00239 48.04654 5105 ft 153 kts 26°
2026-04-12 23:26 54.01181 48.05296 5077 ft 141 kts 25°
2026-04-12 23:26 54.02162 48.05586 4776 ft 150 kts
2026-04-12 23:26 54.03179 48.05288 4439 ft 149 kts 353°
2026-04-12 23:26 54.04182 48.04897 4061 ft 149 kts 353°
2026-04-12 23:27 54.05197 48.04506 3637 ft 153 kts 354°
2026-04-12 23:27 54.06242 48.04115 3203 ft 156 kts 355°
2026-04-12 23:27 54.07300 48.03730 2785 ft 159 kts 356°
2026-04-12 23:28 54.09377 48.04038 2060 ft 136 kts 28°